246  
ASUS41 KOKX 112214  
RWROKX  
 
REGIONAL WEATHER ROUNDUP  
NATIONAL WEATHER SERVICE NEW YORK NY  
500 PM EST TUE DEC 11 2018  
 
NOTE: "FAIR" INDICATES FEW OR NO CLOUDS BELOW 12,000 FEET WITH NO  
SIGNIFICANT WEATHER AND/OR S TO VISIBILITY
.  
 
NYZ071-072-176-178-NJZ106-104-112300-  
NEW YORK CITY METRO AREA  
 
CITY SKY/WX TMP DP RH WIND PRES REMARKS
 
CENTRAL PARK FAIR 39 25 57 MISG 29.98S  
BRONX LEHMAN C N/A 39 25 56 SW5 N/A  
LAGUARDIA ARPT FAIR 38 27 64 S9 29.96F WCI 31  
QUEENS COLLEGE N/A 37 30 75 S7 N/A WCI 32  
KENNEDY INTL FAIR 36 29 75 S5 29.98F WCI 32  
BREEZY POINT N/A 37 N/A N/A S5 N/A WCI 34  
BROOKLYN COLL N/A 37 30 75 SE7 N/A WCI 32  
STATEN ISLAND N/A 37 30 75 SE3 N/A  
NEWARK/LIBERTY FAIR 38 20 48 SW7 29.96F WCI 33  
TETERBORO FAIR 38 22 52 W6 29.95F WCI 33  

 
 
NYZ177-179-078>081-112300-  
LONG ISLAND NEW YORK  
 
CITY SKY/WX TMP DP RH WIND PRES REMARKS
 
JONES BEACH N/A 37 N/A N/A SW1 N/A  
WANTAGH N/A 37 30 75 SW5 N/A WCI 34  
HEMPSTEAD N/A 37 30 75 S2 30.00S  
MATINECOCK PT N/A 37 N/A N/A S3 N/A  
FARMINGDALE FAIR 35 26 69 SW5 29.97F WCI 31  
MACARTHUR/ISP FAIR 36 26 67 SW7 29.97S WCI 30  
STONY BROOK N/A 34 30 86 CALM N/A  
SHIRLEY FAIR 32 26 78 SW3 29.97S  
MT SINAI HARB N/A N/A N/A N/A CALM N/A  
WESTHAMPTON FAIR 28 21 75 CALM 29.98F  
EAST HAMPTON FAIR 29 26 90 CALM 29.96F  
SOUTHOLD N/A 32 30 93 N2 N/A  
MONTAUK N/A 39 30 70 CALM 29.97F  

 
 
NYZ052-065-067-112300-  
HUDSON VALLEY  
 
CITY SKY/WX TMP DP RH WIND PRES REMARKS
 
WHITE PLAINS FAIR 33 23 66 CALM 29.94S  
LARCHMONT HARB N/A 37 N/A N/A SW2 N/A  
CROTON ON HUDS N/A 36 N/A N/A SE2 N/A  
SOMERS N/A 32 23 69 SE2 N/A  
BREWSTER N/A 32 21 64 CALM N/A  
NEWBURGH CLEAR 34 23 64 CALM 29.94F  
MONTGOMERY FAIR 29 21 72 CALM 29.93F  
OTISVILLE N/A 30 21 69 S2 N/A  
WARWICK N/A 32 21 64 W5 N/A WCI 27  
SUFFERN N/A 34 21 60 S3 N/A  
POUGHKEEPSIE FAIR 30 19 63 SE3 29.94F  
ALBANY CLOUDY 29 17 61 NW7 29.99F WCI 22  

 
 
NJZ001-105-106-008-010-013-015-019>022-104-112300-  
NEW JERSEY  
 
CITY SKY/WX TMP DP RH WIND PRES REMARKS
 
NEWARK/LIBERTY FAIR 38 20 48 SW7 29.96F WCI 33  
TETERBORO FAIR 38 22 52 W6 29.95F WCI 33  
CALDWELL FAIR 35 20 54 CALM 29.96F  
SOMERVILLE FAIR 33 20 58 CALM 29.95F  
LINDEN FAIR 39 20 47 CALM 29.96F  
PERTH AMBOY N/A 39 N/A N/A SW5 N/A  
SUSSEX FAIR 32 21 64 CALM 29.94F  
ANDOVER N/A 30 20 66 CALM 29.94F  
TRENTON FAIR 38 21 50 W3 29.97S  
MILLVILLE FAIR 30 22 72 SW3 30.00S  
ATLANTIC CITY FAIR 37 24 59 W5 29.99S WCI 33  
WRIGHTSTOWN CLEAR 37 21 52 SW3 29.95F  
TOMS RIVER FAIR 32 26 78 CALM 29.98S  
BELMAR FAIR 36 29 75 CALM 29.98S  

 
 
PAZ047>061-062-071-112300-  
EASTERN PENNSYLVANIA  
 
CITY SKY/WX TMP DP RH WIND PRES REMARKS
 
PHILADELPHIA FAIR 39 20 46 W12 30.00S WCI 32  
ALLENTOWN FAIR 33 21 61 W8 29.97S WCI 26  
SCRANTON CLOUDY 30 19 63 SW7 29.95S WCI 23  

 
 
CTZ002-004>006-009-010-012-RIZ004-006-007-MAZ004-011-015-112300-  
SOUTHERN NEW ENGLAND  
 
IN CT  
 
CITY SKY/WX TMP DP RH WIND PRES REMARKS
 
BRADLEY INTL FAIR 29 18 63 S5 29.96F WCI 24  
HARTFORD FAIR 32 20 61 CALM 29.97F  
DANBURY FAIR 30 21 69 CALM 29.95F  
WTRBURY/OXFORD FAIR 32 23 69 CALM 29.94F  
NORWALK HARBOR N/A 36 N/A N/A E3 N/A  
BRIDGEPORT FAIR 34 25 69 CALM 29.97F  
MERIDEN FAIR 29 21 72 CALM 29.97S  
NEW HAVEN PTCLDY 37 27 65 CALM 29.97F  
CHESTER FAIR 32 25 74 CALM 29.95F  
GROTON MOCLDY 32 27 81 N5 29.96F WCI 27  
WILLIMANTIC CLOUDY 30 23 75 CALM 29.97F  
 
IN RI  
 
CITY SKY/WX TMP DP RH WIND PRES REMARKS
 
PROVIDENCE MOCLDY 34 25 69 S6 29.98F WCI 29  
BLOCK ISLAND CLOUDY 36 29 75 E3 29.97  
WESTERLY CLOUDY 38 29 70 N6 29.96F WCI 33  
 
IN MA  
 
CITY SKY/WX TMP DP RH WIND PRES REMARKS
 
BOSTON FAIR 34 17 50 S7 29.98F WCI 28  
WORCESTER FAIR 28 16 60 W5 29.92F WCI 23  
WESTFIELD FAIR 28 16 60 CALM 29.96S  
PROVINCETOWN MOCLDY 35 23 61 S3 30.00S  
NANTUCKET MOCLDY 30 22 72 NE3 29.99F  

 
 
ANZ330-335-338-340-345-350-353-355-112300-  
COASTAL MARINE OBSERVATIONS  
 
 
STATION/POSITION TIME SKY/WX TEMP WIND PRES VSBY WAVE
 
AIR SEA DIR/SP/G HT/PER  
(UTC) (F) (DEG/KT/KT) (MB) (MI) (FT/S)  
NY HARB ENTRANCE NOT AVBL  
20 S FIRE ISLAND NOT AVBL  
GREAT SOUTH BAY 2115 41 CALM N/A  
23 SSW MONTAUK P NOT AVBL  
15 E BARNEGAT LI 2200 50 N/A 4/11  
HUDSON CANYON NOT AVBL  
KINGS POINT 2148 42 N/A  
EXECUTION ROCKS 2200 42 170/ 6/ 8 N/A  
WESTERN LI SOUND 2145 38 130/ 4/ 8 N/A 0  
CENTRAL LI SOUND NOT AVBL  
ROBBINS REEF 2148 39 190/ 8/ 10 1015.2  

 
 
>>>>>>>>>>>>>>>>>>>>>>>>>>>> KEY <<<<<<<<<<<<<<<<<<<<<<<<<<<  
> <  
> SKY/WX - SKY CONDITION/PRESENT WEATHER <  
> TMP - TEMPERATURE IN FAHRENHEIT <  
> DP - DEW POINT IN FAHRENHEIT <  
> RH - RELATIVE HUMIDITY IN PERCENT <  
> WIND - DIRECTION (FROM) AND SPEED IN MPH <  
> PRES - MEAN SEA LEVEL PRESSURE (INCHES OF HG) <  
> WCI - WIND CHILL INDEX <  
> VSB - VISIBILITY IN MILES <  
> HX - HEAT INDEX <  
> TC - TEMPERATURE IN CELSIUS <  
> VRB - VARIABLE WIND DIRECTION <  
> <  
>>>>>>>>>>>>>>>>>>>>>>>>>>>> KEY <<<<<<<<<<<<<<<<<<<<<<<<<<<  
 
 
CLICK HERE TO GO TO PREVIOUS BULLETINS.

The Nexlab NY Page
The Nexlab NJ Page
The Nexlab CT Page Main Text Page